Estación de Olivar Alto

Ultimos registro cada 15 minutos 30
Estación Fecha / Hora Temperatura Humedad Lluvia Velocidad Dirección Radiación Presion
30 Olivar Alto 06-05-2026 07:15 7,3 97 0 0 71 0 1016,2
29 Olivar Alto 06-05-2026 07:00 6,8 96 0 0 47 0 1016,4
28 Olivar Alto 06-05-2026 06:45 6,2 95 0 0 51 0 1016,1
27 Olivar Alto 06-05-2026 06:30 6,3 94 0 0 50 0 1016
26 Olivar Alto 06-05-2026 06:15 7,1 96 0 0 50 0 1015,9
25 Olivar Alto 06-05-2026 06:00 6,9 96 0 0 49 0 1015,8
24 Olivar Alto 06-05-2026 05:45 6,3 95 0 0,9 48 0 1015,5
23 Olivar Alto 06-05-2026 05:30 6 95 0 0 48 0 1015,4
22 Olivar Alto 06-05-2026 05:15 5,9 92 0 0 28 0 1015,5
21 Olivar Alto 06-05-2026 05:00 6,8 92 0 0 28 0 1015,1
20 Olivar Alto 06-05-2026 04:45 7,5 94 0 0 28 0 1015,1
19 Olivar Alto 06-05-2026 04:30 7,6 95 0 0 28 0 1015,2
18 Olivar Alto 06-05-2026 04:15 7,4 94 0 0 28 0 1015
17 Olivar Alto 06-05-2026 04:00 7,3 94 0 0 28 0 1014,8
16 Olivar Alto 06-05-2026 03:45 7,8 94 0 0 28 0 1014,9
15 Olivar Alto 06-05-2026 03:30 7,5 90 0 0 28 0 1015
14 Olivar Alto 06-05-2026 03:15 8,4 91 0 0 28 0 1015
13 Olivar Alto 06-05-2026 03:00 9,1 92 0 0 28 0 1015
12 Olivar Alto 06-05-2026 02:45 9,4 92 0 0 28 0 1014,9
11 Olivar Alto 06-05-2026 02:30 9,9 91 0 0 28 0 1015
10 Olivar Alto 06-05-2026 02:15 10,3 91 0 0 28 0 1015,2
9 Olivar Alto 06-05-2026 02:00 10,6 92 0 0 30 0 1015,3
8 Olivar Alto 06-05-2026 01:45 10,5 91 0 0 35 0 1015,4
7 Olivar Alto 06-05-2026 01:30 10,8 91 0 0 35 0 1015,5
6 Olivar Alto 06-05-2026 01:15 11,1 92 0 0 35 0 1015,6
5 Olivar Alto 06-05-2026 01:00 11 92 0 0 35 0 1015,7
4 Olivar Alto 06-05-2026 00:45 11,1 93 0 0 33 0 1015,8
3 Olivar Alto 06-05-2026 00:30 10,8 94 0 0,9 81 0 1015,7
2 Olivar Alto 06-05-2026 00:15 10,3 94 0 0 128 0 1015,9
1 Olivar Alto 06-05-2026 00:00 10,2 94 0 0 128 0 1016,1